| time (UTC) | temp F | wind direction | speed MPH | gust MPH | rain 1hr in | rain 24hr in | rain mn in | humidity % | barometer mb |
| 20260903233006 | 78 | 276 | 2.0 | 8.0 | 0.00 | 0.00 | 0.00 | 72 | 1016.5 |
| 20260903231511 | 83 | 235 | 0.0 | 1.0 | 0.00 | 0.00 | 0.00 | 69 | 1015.2 |
| 20260903230023 | 83 | 15 | 0.0 | 2.0 | 0.00 | 0.00 | 0.00 | 75 | 1015.0 |
| 20260903224503 | 84 | 274 | 0.0 | 1.0 | 0.00 | 0.00 | 0.00 | 75 | 1014.8 |
| 20260903223003 | 85 | 284 | 0.0 | 1.0 | 0.00 | 0.00 | 0.00 | 72 | 1014.3 |
| 20260903221507 | 86 | 255 | 0.0 | 2.0 | 0.00 | 0.00 | 0.00 | 69 | 1014.3 |
| 20260903220012 | 87 | 266 | 0.0 | 2.0 | 0.00 | 0.00 | 0.00 | 69 | 1014.4 |
| 20260903214533 | 88 | 300 | 0.0 | 2.0 | 0.00 | 0.00 | 0.00 | 67 | 1014.2 |
| 20260903213037 | 88 | 276 | 0.0 | 4.0 | 0.00 | 0.00 | 0.00 | 66 | 1014.1 |
| 20260903211531 | 90 | 270 | 0.0 | 4.0 | 0.00 | 0.00 | 0.00 | 63 | 1013.8 |
| 20260903210010 | 92 | 286 | 3.0 | 6.0 | 0.00 | 0.00 | 0.00 | 57 | 1013.6 |
| 20260903204516 | 94 | 288 | 1.0 | 5.0 | 0.00 | 0.00 | 0.00 | 55 | 1013.4 |
| 20260903203020 | 94 | 262 | 2.0 | 6.0 | 0.00 | 0.00 | 0.00 | 55 | 1013.5 |
| 20260903201527 | 94 | 254 | 1.0 | 8.0 | 0.00 | 0.00 | 0.00 | 56 | 1013.6 |
| 20260903200030 | 94 | 266 | 2.0 | 8.0 | 0.00 | 0.00 | 0.00 | 55 | 1013.8 |
| 20260903194510 | 93 | 248 | 1.0 | 5.0 | 0.00 | 0.00 | 0.00 | 56 | 1014.0 |
| 20260903193018 | 95 | 274 | 1.0 | 4.0 | 0.00 | 0.00 | 0.00 | 55 | 1014.1 |
| 20260903191535 | 94 | 262 | 0.0 | 4.0 | 0.00 | 0.00 | 0.00 | 54 | 1014.6 |
| 20260903190028 | 94 | 259 | 0.0 | 4.0 | 0.00 | 0.00 | 0.00 | 56 | 1015.0 |
| 20260903184532 | 94 | 230 | 1.0 | 5.0 | 0.00 | 0.00 | 0.00 | 54 | 1015.0 |
| 20260903183022 | 95 | 287 | 0.0 | 6.0 | 0.00 | 0.00 | 0.00 | 54 | 1015.0 |
| 20260903181516 | 95 | 280 | 0.0 | 4.0 | 0.00 | 0.00 | 0.00 | 55 | 1015.2 |
| 20260903180031 | 94 | 242 | 1.0 | 6.0 | 0.00 | 0.00 | 0.00 | 52 | 1015.4 |
| 20260903174528 | 94 | 293 | 1.0 | 4.0 | 0.00 | 0.00 | 0.00 | 58 | 1015.7 |
| 20260903173033 | 93 | 266 | 1.0 | 4.0 | 0.00 | 0.00 | 0.00 | 58 | 1015.8 |
| 20260903171513 | 93 | 275 | 1.0 | 5.0 | 0.00 | 0.00 | 0.00 | 60 | 1016.0 |
| 20260903170018 | 92 | 227 | 1.0 | 4.0 | 0.00 | 0.00 | 0.00 | 62 | 1016.2 |
| 20260903164526 | 91 | 244 | 0.0 | 3.0 | 0.00 | 0.00 | 0.00 | 63 | 1016.4 |
| 20260903163029 | 90 | 278 | 1.0 | 3.0 | 0.00 | 0.00 | 0.00 | 66 | 1016.4 |
| 20260903161531 | 90 | 260 | 1.0 | 3.0 | 0.00 | 0.00 | 0.00 | 67 | 1016.4 |
| 20260903160012 | 89 | 264 | 1.0 | 4.0 | 0.00 | 0.00 | 0.00 | 69 | 1016.4 |
| 20260903154518 | 89 | 281 | 0.0 | 4.0 | 0.00 | 0.00 | 0.00 | 70 | 1016.4 |
| 20260903153027 | 88 | 303 | 0.0 | 2.0 | 0.00 | 0.00 | 0.00 | 68 | 1016.7 |
| 20260903151531 | 87 | 270 | 0.0 | 4.0 | 0.00 | 0.00 | 0.00 | 70 | 1016.6 |
| 20260903150031 | 86 | 322 | 1.0 | 2.0 | 0.00 | 0.00 | 0.00 | 68 | 1016.8 |
| 20260903144520 | 85 | 267 | 1.0 | 3.0 | 0.00 | 0.00 | 0.00 | 72 | 1016.8 |
| 20260903143023 | 84 | 230 | 0.0 | 2.0 | 0.00 | 0.00 | 0.00 | 75 | 1016.8 |
| 20260903141529 | 83 | 285 | 0.0 | 1.0 | 0.00 | 0.00 | 0.00 | 75 | 1016.9 |
| 20260903140034 | 82 | 241 | 0.0 | 2.0 | 0.00 | 0.00 | 0.00 | 76 | 1017.0 |
| 20260903134533 | 82 | 252 | 0.0 | 2.0 | 0.00 | 0.00 | 0.00 | 79 | 1016.9 |
| 20260903133018 | 81 | 277 | 0.0 | 1.0 | 0.00 | 0.00 | 0.00 | 80 | 1017.0 |
| 20260903131527 | 78 | 252 | 0.0 | 1.0 | 0.00 | 0.00 | 0.00 | 83 | 1017.2 |
| 20260903130004 | 78 | 251 | 0.0 | 1.0 | 0.00 | 0.00 | 0.00 | 85 | 1017.3 |
| 20260903124506 | 79 | 255 | 0.0 | 2.0 | 0.00 | 0.00 | 0.00 | 83 | 1016.8 |
| 20260903123011 | 76 | 87 | 0.0 | 2.0 | 0.00 | 0.00 | 0.00 | 88 | 1016.7 |
| 20260903121526 | 72 | 289 | 0.0 | 0.0 | 0.00 | 0.00 | 0.00 | 95 | 1016.6 |
| 20260903120030 | 72 | 289 | 0.0 | 1.0 | 0.00 | 0.00 | 0.00 | 95 | 1016.5 |
| 20260903114505 | 71 | 289 | 0.0 | 1.0 | 0.00 | 0.00 | 0.00 | 96 | 1016.5 |
| 20260903113009 | 71 | 289 | 0.0 | 0.0 | 0.00 | 0.00 | 0.00 | 95 | 1016.4 |
| 20260903111516 | 71 | 289 | 0.0 | 0.0 | 0.00 | 0.00 | 0.00 | 95 | 1016.3 |
| 20260903110023 | 71 | 289 | 0.0 | 0.0 | 0.00 | 0.00 | 0.00 | 95 | 1016.2 |
| 20260903104530 | 71 | 289 | 0.0 | 0.0 | 0.00 | 0.00 | 0.00 | 95 | 1016.1 |
| 20260903103006 | 71 | 289 | 0.0 | 0.0 | 0.00 | 0.01 | 0.00 | 95 | 1016.2 |
| 20260903101513 | 71 | 289 | 0.0 | 0.0 | 0.00 | 0.01 | 0.00 | 94 | 1016.2 |
| 20260903100023 | 71 | 289 | 0.0 | 0.0 | 0.00 | 0.01 | 0.00 | 94 | 1016.0 |
| 20260903094526 | 71 | 289 | 0.0 | 0.0 | 0.00 | 0.01 | 0.00 | 94 | 1015.9 |
| 20260903093031 | 71 | 289 | 0.0 | 0.0 | 0.00 | 0.01 | 0.00 | 94 | 1015.9 |
| 20260903091508 | 72 | 289 | 0.0 | 0.0 | 0.00 | 0.01 | 0.00 | 94 | 1015.8 |
| 20260903090012 | 72 | 289 | 0.0 | 0.0 | 0.00 | 0.01 | 0.00 | 93 | 1015.8 |
| 20260903084519 | 72 | 289 | 0.0 | 0.0 | 0.00 | 0.01 | 0.00 | 93 | 1016.0 |
| 20260903083032 | 72 | 289 | 0.0 | 1.0 | 0.00 | 0.01 | 0.00 | 92 | 1015.8 |
| 20260903081528 | 73 | 289 | 0.0 | 1.0 | 0.00 | 0.01 | 0.00 | 91 | 1016.1 |
| 20260903080010 | 73 | 289 | 0.0 | 2.0 | 0.00 | 0.01 | 0.00 | 91 | 1015.9 |
| 20260903074515 | 73 | 272 | 0.0 | 0.0 | 0.00 | 0.01 | 0.00 | 92 | 1016.0 |
| 20260903073025 | 73 | 273 | 0.0 | 1.0 | 0.00 | 0.01 | 0.00 | 91 | 1015.6 |
| 20260903071531 | 74 | 272 | 0.0 | 1.0 | 0.00 | 0.01 | 0.00 | 90 | 1015.6 |
| 20260903070032 | 74 | 271 | 0.0 | 0.0 | 0.00 | 0.01 | 0.00 | 90 | 1015.6 |
| 20260903064514 | 74 | 271 | 0.0 | 0.0 | 0.00 | 0.01 | 0.00 | 90 | 1015.7 |
| 20260903063020 | 74 | 271 | 0.0 | 0.0 | 0.00 | 0.01 | 0.00 | 88 | 1015.8 |
| 20260903061539 | 75 | 271 | 0.0 | 1.0 | 0.00 | 0.01 | 0.00 | 87 | 1015.8 |
| 20260903060034 | 76 | 271 | 0.0 | 1.0 | 0.00 | 0.01 | 0.00 | 85 | 1015.9 |
| 20260903054532 | 76 | 271 | 0.0 | 1.0 | 0.00 | 0.01 | 0.00 | 85 | 1015.8 |
| 20260903053016 | 77 | 271 | 0.0 | 1.0 | 0.00 | 0.01 | 0.00 | 83 | 1015.7 |
| 20260903051518 | 77 | 269 | 0.0 | 1.0 | 0.00 | 0.01 | 0.00 | 84 | 1015.5 |
| 20260903050032 | 76 | 269 | 0.0 | 1.0 | 0.00 | 0.01 | 0.00 | 84 | 1015.3 |
| 20260903044530 | 76 | 266 | 0.0 | 1.0 | 0.00 | 0.01 | 0.00 | 85 | 1015.2 |
| 20260903043034 | 77 | 266 | 0.0 | 1.0 | 0.00 | 0.01 | 0.00 | 84 | 1015.1 |
| 20260903041529 | 77 | 262 | 0.0 | 1.0 | 0.00 | 0.01 | 0.00 | 84 | 1015.0 |
| 20260903040026 | 77 | 262 | 0.0 | 2.0 | 0.00 | 0.01 | 0.00 | 84 | 1014.9 |
| 20260903034530 | 77 | 280 | 0.0 | 1.0 | 0.00 | 0.01 | 0.01 | 85 | 1014.8 |
| 20260903033030 | 76 | 280 | 0.0 | 1.0 | 0.00 | 0.01 | 0.01 | 86 | 1014.9 |
| 20260903031532 | 76 | 280 | 0.0 | 1.0 | 0.00 | 0.01 | 0.01 | 89 | 1015.2 |
| 20260903030018 | 77 | 279 | 0.0 | 1.0 | 0.00 | 0.01 | 0.01 | 88 | 1015.6 |
| 20260903024524 | 77 | 279 | 0.0 | 1.0 | 0.00 | 0.01 | 0.01 | 87 | 1015.5 |
| 20260903023033 | 77 | 279 | 0.0 | 1.0 | 0.00 | 0.01 | 0.01 | 87 | 1015.6 |
| 20260903021532 | 78 | 279 | 0.0 | 1.0 | 0.00 | 0.01 | 0.01 | 87 | 1015.7 |
| 20260903020040 | 78 | 280 | 0.0 | 1.0 | 0.00 | 0.01 | 0.01 | 87 | 1015.7 |
| 20260903014521 | 79 | 283 | 0.0 | 1.0 | 0.00 | 0.01 | 0.01 | 87 | 1015.8 |
| 20260903013030 | 78 | 283 | 0.0 | 1.0 | 0.00 | 0.01 | 0.01 | 89 | 1015.7 |
| 20260903011538 | 78 | 283 | 0.0 | 0.0 | 0.00 | 0.01 | 0.01 | 88 | 1015.7 |
| 20260903010039 | 79 | 283 | 0.0 | 0.0 | 0.00 | 0.01 | 0.01 | 87 | 1015.6 |
| 20260903004534 | 80 | 283 | 0.0 | 0.0 | 0.00 | 0.01 | 0.01 | 86 | 1015.5 |
| 20260903003028 | 81 | 283 | 0.0 | 0.0 | 0.00 | 0.01 | 0.01 | 84 | 1015.3 |
| 20260903001505 | 81 | 283 | 0.0 | 0.0 | 0.00 | 0.01 | 0.01 | 84 | 1015.1 |
| 20260903000008 | 82 | 283 | 0.0 | 0.0 | 0.00 | 0.01 | 0.01 | 84 | 1015.1 |
| 20260902234518 | 83 | 283 | 0.0 | 0.0 | 0.00 | 0.01 | 0.01 | 81 | 1015.2 |